Tiempo atmosférico en la estación meteorológica de Girona, Girona (79 m.)



Fecha
DESCASC
Temp. máxima en grados centígrados (hora)
DESCASC
Temp. mínima en grados centígrados (hora)
DESCASC
Temp. media en grados centígrados
DESCASC
Racha de viento máxima en m/sg (hora)
DESCASC
Velocidad máxima media en intervalos de 10 minutos(hora)
DESCASC
Precipitaciones diarias en mm
DESCASC
Precipitaciones de 00:00 a 06:00 en mm
DESCASC
Precipitaciones de 06:00 a 12:00 en mm
DESCASC
Precipitaciones de 12:00 a 18:00 en mm
DESCASC
Precipitaciones de 18:00 a 24:00 en mm
DESCASC
22-01-2020 13.9 (12:30) 9.3 (08:30) 11.6 13.61 (03:40) 5 (00:30) 53.4 37.4 9.2 2.8 4
21-01-2020 11.7 (21:00) 4.3 (02:40) 8 13.89 (11:50) 5 (02:40) 110.6 65.6 25.4 7 12.6
20-01-2020 7.8 (00:00) 4.2 (18:30) 6 15.28 (13:40) 6.67 (06:20) 65.8 0 0 18.2 47.6
19-01-2020 10.9 (14:20) 5.9 (00:00) 8.4 16.11 (14:50) 7.5 (14:30) 0 0 0 0 0
18-01-2020 14.4 (14:10) 3.3 (00:00) 8.8 7.78 (15:30) 3.61 (15:30) 0 0 0 0 0
17-01-2020 19.4 (15:30) 4.7 (00:00) 12 11.39 (15:50) 5.28 (15:50) 0 0 0 0 0
16-01-2020 15.4 (14:20) 2.1 (00:00) 8.7 7.5 (17:00) 3.33 (15:20) 0 0 0 0 0
15-01-2020 15.5 (15:20) 4.2 (00:00) 9.8 7.78 (12:40) 3.33 (12:40) 0 0 0 0 0
14-01-2020 16.2 (15:10) -0.3 (00:00) 8 10 (21:40) 5 (22:00) 0 0 0 0 0
13-01-2020 13.4 (14:50) -1.2 (-00:0) 6.1 3.33 (16:20) 1.39 (16:00) 0 0 0 0 0
12-01-2020 16 (16:00) -1.5 (-00:0) 7.3 2.22 (23:40) 1.11 (15:50) 0 0 0 0 0
11-01-2020 13.2 (15:50) 0.9 (00:00) 7 5.83 (14:10) 2.5 (14:10) 0 0 0 0 0
10-01-2020 15.1 (16:00) 4.2 (00:00) 9.7 4.72 (00:20) 1.94 (00:20) 8.6 0.8 7.8 0 0
09-01-2020 15.9 (15:00) 0.6 (00:00) 8.2 8.61 (15:30) 4.17 (21:30) 0 0 0 0 0
08-01-2020 16.3 (15:00) 2.6 (00:00) 9.4 6.39 (12:30) 2.78 (13:00) 0 0 0 0 0
07-01-2020 16.4 (15:10) 1 (00:00) 8.7 1.94 (11:00) 1.11 (11:00) 0 0 0 0 0
06-01-2020 16.3 (15:30) 0.3 (00:00) 8.3 3.33 (13:50) 1.67 (13:50) 0 0 0 0 0
05-01-2020 17.7 (15:30) 0.1 (00:00) 8.9 4.17 (15:40) 1.67 (15:40) 0 0 0 0 0
04-01-2020 16.6 (15:20) 0.5 (00:00) 8.6 2.5 (14:00) 1.39 (14:20) 0 0 0 0 0
03-01-2020 13.6 (14:20) 1.2 (00:00) 7.4 2.78 (13:50) 1.39 (13:50) 0 0 0 0 0
02-01-2020 13.8 (15:30) 2.3 (00:00) 8.1 6.67 (13:10) 3.06 (13:10) 0 0 0 0 0
01-01-2020 14.7 (15:50) 2.1 (00:00) 8.4 3.89 (14:30) 2.22 (14:30) 0 0 0 0 0
31-12-2019 16.1 (15:10) 5 (00:00) 10.6 3.61 (13:30) 1.94 (13:30) 0 0 0 0 0
30-12-2019 14.9 (15:00) 3.9 (00:00) 9.4 3.89 (13:30) 1.94 (13:40) 0 0 0 0 0
29-12-2019 13.4 (13:50) 2 (00:00) 7.7 3.61 (15:50) 2.22 (15:40) 0 0 0 0 0
28-12-2019 15.6 (14:10) 2.5 (00:00) 9.1 2.5 (16:50) 1.11 (16:30) 0 0 0 0 0
27-12-2019 16.2 (15:20) 5.5 (00:00) 10.9 3.06 (13:20) 1.67 (13:20) 0 0 0 0 0
26-12-2019 17.5 (16:10) 4.3 (00:00) 10.9 2.5 (14:00) 1.11 (15:40) 0 0 0 0 0
25-12-2019 21.1 (15:40) 4.3 (00:00) 12.7 4.44 (14:40) 1.67 (14:40) 0 0 0 0 0
24-12-2019 18.9 (14:10) 3.7 (00:00) 11.3 3.06 (11:30) 1.39 (11:30) 0 0 0 0 0

Gráficas

Temp. máximas Temp. mínimas Temp. medias Precipitaciones Rachas de viento máximas Velocidades máximas media en intervalos de 10 minutos

Datos horarios

Fecha y hora oficial Temperatura (ºC) Velocidad del viento (km/h) Dirección del viento Racha (km/h) Dirección de racha Precipitación (mm) Presión (hPa) Tendencia (hPa) Humedad (%)
2020-01-22 23:00:00 13.4 3 Nordeste 17 Este 1.2 -- -- 100
2020-01-22 22:00:00 13.5 6 Este 24 Este 0.8 -- -- 98
2020-01-22 21:00:00 13.6 6 Nordeste 30 Sudeste 0.2 -- -- 96
2020-01-22 20:00:00 13.5 6 Este 25 Nordeste 0.6 -- -- 98
2020-01-22 19:00:00 13.5 7 Este 23 Este 0.6 -- -- 97
2020-01-22 18:00:00 13.7 8 Este 36 Este 0.6 -- -- 95
2020-01-22 17:00:00 13.9 6 Sudeste 25 Este 0 -- -- 93
2020-01-22 16:00:00 13.8 8 Este 26 Este 0.2 -- -- 95
2020-01-22 15:00:00 13.7 6 Este 26 Sudeste 1.2 -- -- 97
2020-01-22 14:00:00 13.9 9 Este 27 Este 0.4 -- -- 95
2020-01-22 13:00:00 13.8 5 Sudeste 23 Sudeste 0.4 -- -- 96
2020-01-22 12:00:00 13.7 6 Sudeste 31 Este 1.8 -- -- 98
2020-01-22 11:00:00 13.4 8 Sudeste 28 Sur 2 -- -- 100
2020-01-22 10:00:00 12.3 5 Sudeste 22 Sur 0.4 -- -- 100
2020-01-22 09:00:00 9.6 2 Oeste 15 Sur 0 -- -- 100
2020-01-22 08:00:00 9.7 5 Sudoeste 15 Noroeste 3.8 -- -- 97
2020-01-22 07:00:00 12.9 6 Sudeste 30 Sudeste 1.2 -- -- 91
2020-01-22 06:00:00 13.2 10 Sudeste 40 Este 1.6 -- -- 97
2020-01-22 05:00:00 12.2 9 Este 35 Este 9.8 -- -- 100
2020-01-22 04:00:00 11.7 11 Sudeste 49 Nordeste 8.4 -- -- 100
2020-01-22 03:00:00 12 9 Nordeste 41 Este 2.4 -- -- 99
2020-01-22 02:00:00 11.5 14 Nordeste 35 Nordeste 5.6 -- -- 100
2020-01-22 01:00:00 10.9 13 Nordeste 45 Este 9.6 -- -- 100
2020-01-22 00:00:00 11.1 13 Nordeste 36 Nordeste 7.2 -- -- 96
2020-01-21 23:00:00 11.1 14 Nordeste 40 Nordeste 3 -- -- 93
2020-01-21 22:00:00 11 13 Nordeste 41 Nordeste 2.4 -- -- 91
2020-01-21 21:00:00 11.7 12 Nordeste 33 Nordeste 0 -- -- 79
2020-01-21 20:00:00 11.3 12 Norte 40 Norte 0 -- -- 81
2020-01-21 19:00:00 11.2 10 Nordeste 33 Nordeste 0 -- -- 81
2020-01-21 18:00:00 11.1 12 Nordeste 36 Norte 0 -- -- 82
2020-01-21 17:00:00 11 12 Nordeste 31 Nordeste 0 -- -- 85
2020-01-21 16:00:00 10.8 10 Nordeste 31 Nordeste 0 -- -- 87
2020-01-21 15:00:00 10.5 11 Nordeste 35 Nordeste 0 -- -- 90
2020-01-21 14:00:00 10.1 15 Nordeste 36 Norte 3.6 -- -- 98
2020-01-21 13:00:00 9.8 12 Nordeste 39 Nordeste 3.4 -- -- 100
2020-01-21 12:00:00 9.6 13 Nordeste 50 Nordeste 3.8 -- -- 100
2020-01-21 11:00:00 9.5 14 Nordeste 39 Este 2 -- -- 100
2020-01-21 10:00:00 9.2 15 Nordeste 44 Nordeste 2 -- -- 100
2020-01-21 09:00:00 8.8 12 Norte 37 Nordeste 1.8 -- -- 100
2020-01-21 08:00:00 6.1 15 Norte 28 Norte 5.2 -- -- 100
2020-01-21 07:00:00 5.4 12 Norte 31 Norte 10.6 -- -- 100
2020-01-21 06:00:00 5.2 11 Norte 30 Norte 8.8 -- -- 100
2020-01-21 05:00:00 4.8 13 Norte 32 Norte 14.6 -- -- 100
2020-01-21 04:00:00 4.6 15 Norte 36 Norte 13.6 -- -- 100
2020-01-21 03:00:00 4.5 16 Norte 39 Norte 9.6 -- -- 100
2020-01-21 02:00:00 4.5 17 Norte 34 Norte 11.2 -- -- 100
2020-01-21 01:00:00 4.5 14 Norte 38 Noroeste 7.8 -- -- 100
2020-01-21 00:00:00 4.6 14 Norte 37 Norte 8 -- -- 100
2020-01-20 23:00:00 4.8 17 Norte 36 Norte 9 -- -- 100
2020-01-20 22:00:00 5.1 16 Norte 35 Norte 7 -- -- 100
2020-01-20 21:00:00 5 15 Norte 35 Norte 9 -- -- 100
2020-01-20 20:00:00 4.6 12 Norte 33 Norte 8.4 -- -- 100
2020-01-20 19:00:00 4.3 15 Norte 32 Norte 6.2 -- -- 99
2020-01-20 18:00:00 4.7 14 Norte 34 Norte 4.8 -- -- 95
2020-01-20 17:00:00 4.8 16 Norte 33 Norte 3.8 -- -- 95
2020-01-20 16:00:00 4.5 13 Norte 47 Norte 4.4 -- -- 95
2020-01-20 15:00:00 4.6 19 Norte 38 Nordeste 3.4 -- -- 90
2020-01-20 14:00:00 5.1 16 Norte 55 Norte 1.2 -- -- 84
2020-01-20 13:00:00 6.1 23 Norte 52 Norte 0.6 -- -- 68
2020-01-20 12:00:00 6.3 17 Norte 42 Nordeste 0 -- -- 65
2020-01-20 11:00:00 6.4 16 Norte 41 Norte 0 -- -- 58
2020-01-20 10:00:00 6.7 20 Norte 44 Norte 0 -- -- 54
2020-01-20 09:00:00 6.6 20 Norte 44 Norte 0 -- -- 51
2020-01-20 08:00:00 6.7 22 Norte 45 Nordeste 0 -- -- 46
2020-01-20 07:00:00 6.9 22 Norte 51 Norte 0 -- -- 42
2020-01-20 06:00:00 7.3 22 Norte 52 Norte 0 -- -- 38
2020-01-20 05:00:00 7.2 19 Norte 45 Norte 0 -- -- 38
2020-01-20 04:00:00 6.9 17 Norte 41 Norte 0 -- -- 40
2020-01-20 03:00:00 7.5 17 Norte 42 Nordeste 0 -- -- 36
2020-01-20 02:00:00 7.6 15 Norte 43 Nordeste 0 -- -- 36
2020-01-20 01:00:00 7.7 17 Norte 49 Nordeste 0 -- -- 36
2020-01-20 00:00:00 7.8 21 Norte 52 Norte 0 -- -- 36
2020-01-19 23:00:00 8 21 Norte 52 Norte 0 -- -- 37
2020-01-19 22:00:00 8.2 21 Norte 57 Norte 0 -- -- 36
2020-01-19 21:00:00 8.6 22 Norte 50 Norte 0 -- -- 34
2020-01-19 20:00:00 8.6 18 Norte 46 Norte 0 -- -- 35
2020-01-19 19:00:00 9.2 16 Norte 46 Norte 0 -- -- 35
2020-01-19 18:00:00 9.5 22 Norte 54 Norte 0 -- -- 35
2020-01-19 17:00:00 10 14 Norte 42 Norte 0 -- -- 31
2020-01-19 16:00:00 10.4 22 Norte 48 Nordeste 0 -- -- 30
2020-01-19 15:00:00 10.6 20 Norte 58 Norte 0 -- -- 36
2020-01-19 14:00:00 10.6 23 Norte 49 Norte 0 -- -- 36
2020-01-19 13:00:00 10.6 17 Norte 43 Nordeste 0 -- -- 37
2020-01-19 12:00:00 10 12 Norte 43 Nordeste 0 -- -- 39
2020-01-19 11:00:00 9.3 13 Norte 36 Norte 0 -- -- 42
2020-01-19 10:00:00 7.7 13 Norte 31 Norte 0 -- -- 51
2020-01-19 09:00:00 7.5 16 Norte 49 Noroeste 0 -- -- 53
2020-01-19 08:00:00 7.5 16 Norte 36 Norte 0 -- -- 58
2020-01-19 07:00:00 7.3 15 Norte 33 Norte 0 -- -- 67
2020-01-19 06:00:00 7.5 12 Norte 31 Norte 0 -- -- 74
2020-01-19 05:00:00 6.9 10 Norte 27 Norte 0 -- -- 91
2020-01-19 04:00:00 7.4 9 Norte 23 Norte 0 -- -- 93
2020-01-19 03:00:00 8.1 10 Norte 22 Noroeste 0 -- -- 91
2020-01-19 02:00:00 6.6 0 Calma 4 Noroeste 0 -- -- 92
2020-01-19 01:00:00 6.3 3 Noroeste 5 Noroeste 0 -- -- 93
2020-01-19 00:00:00 5.9 0 Calma 3 Oeste 0 -- -- 97
2020-01-18 23:00:00 5.6 0 Calma 5 Noroeste 0 -- -- 97
2020-01-18 22:00:00 6.1 0 Calma 5 Noroeste 0 -- -- 94
2020-01-18 21:00:00 7 0 Calma 5 Sudoeste 0 -- -- 90
2020-01-18 20:00:00 8.4 0 Calma 9 Noroeste 0 -- -- 83
2020-01-18 19:00:00 9 0 Calma 5 Sur 0 -- -- 80
2020-01-18 18:00:00 11 4 Sudeste 16 Sudeste 0 -- -- 72
2020-01-18 17:00:00 13 8 Sur 18 Sudeste 0 -- -- 61
2020-01-18 16:00:00 13.7 9 Sudeste 28 Sudeste 0 -- -- 60
2020-01-18 15:00:00 14.2 10 Sur 25 Sudeste 0 -- -- 59
2020-01-18 14:00:00 14.3 7 Sudeste 16 Sur 0 -- -- 55
2020-01-18 13:00:00 12.2 3 Nordeste 6 Nordeste 0 -- -- 56
2020-01-18 12:00:00 9.6 2 Sur 6 Norte 0 -- -- 68
2020-01-18 11:00:00 7.9 3 Oeste 5 Oeste 0 -- -- 79
2020-01-18 10:00:00 6.1 0 Calma 5 Noroeste 0 -- -- 87
2020-01-18 09:00:00 5.3 2 Oeste 5 Oeste 0 -- -- 91
2020-01-18 08:00:00 5 0 Calma 5 Oeste 0 -- -- 90
2020-01-18 07:00:00 4.8 0 Calma 5 Sudoeste 0 -- -- 90
2020-01-18 06:00:00 4.3 0 Calma 5 Norte 0 -- -- 91
2020-01-18 05:00:00 3.6 0 Calma 4 Sudoeste 0 -- -- 93
2020-01-18 04:00:00 3.5 3 Noroeste 6 Norte 0 -- -- 93
2020-01-18 03:00:00 3.6 2 Noroeste 5 Oeste 0 -- -- 91
2020-01-18 02:00:00 4 0 Calma 4 Noroeste 0 -- -- 90
2020-01-18 01:00:00 4.8 0 Calma 4 Noroeste 0 -- -- 88
2020-01-18 00:00:00 4.7 0 Calma 5 Noroeste 0 -- -- 90
2020-01-17 23:00:00 5.4 0 Calma 5 Norte 0 -- -- 86
2020-01-17 22:00:00 6.3 0 Calma 5 Oeste 0 -- -- 84
2020-01-17 21:00:00 7.2 2 Oeste 5 Sudoeste 0 -- -- 79
2020-01-17 20:00:00 8.9 0 Calma 8 Nordeste 0 -- -- 70
2020-01-17 19:00:00 10.4 0 Calma 10 Nordeste 0 -- -- 62
2020-01-17 18:00:00 11.4 3 Este 14 Nordeste 0 -- -- 59
2020-01-17 17:00:00 12.1 6 Nordeste 32 Norte 0 -- -- 55
2020-01-17 16:00:00 14.3 13 Norte 41 Nordeste 0 -- -- 58
2020-01-17 15:00:00 19 6 Oeste 18 Sudoeste 0 -- -- 39
2020-01-17 14:00:00 18.5 3 Oeste 15 Oeste 0 -- -- 41
2020-01-17 13:00:00 17.5 6 Noroeste 21 Sudoeste 0 -- -- 47
2020-01-17 12:00:00 15.9 8 Oeste 19 Sudoeste 0 -- -- 51
2020-01-17 11:00:00 12.9 3 Sur 5 Sudeste 0 -- -- 68
2020-01-17 10:00:00 10.2 3 Nordeste 9 Sudeste 0 -- -- 83
2020-01-17 09:00:00 9.4 5 Sudeste 14 Sudeste 0 -- -- 89
2020-01-17 08:00:00 9.7 3 Sur 18 Sudeste 0 -- -- 88
2020-01-17 07:00:00 9.6 4 Nordeste 14 Sur 0 -- -- 90
2020-01-17 06:00:00 8.9 3 Sur 10 Sudeste 0 -- -- 95
2020-01-17 05:00:00 9.3 3 Sudeste 18 Sur 0 -- -- 92
2020-01-17 04:00:00 9.9 8 Sur 24 Sur 0 -- -- 89
2020-01-17 03:00:00 10.3 9 Sur 20 Sudeste 0 -- -- 89
2020-01-17 02:00:00 10.3 8 Sur 21 Sudeste 0 -- -- 92
2020-01-17 01:00:00 10 5 Sudeste 21 Sur 0 -- -- 91
2020-01-17 00:00:00 9.9 9 Sur 22 Sudeste 0 -- -- 88
2020-01-16 23:00:00 9.4 2 Sudoeste 13 Sur 0 -- -- 99
2020-01-16 22:00:00 7.7 0 Calma 4 Norte 0 -- -- 92
2020-01-16 21:00:00 10.2 3 Sur 14 Sudeste 0 -- -- 90
2020-01-16 20:00:00 10.7 5 Sudeste 13 Sur 0 -- -- 90
2020-01-16 19:00:00 11.2 6 Sur 21 Sudeste 0 -- -- 83
2020-01-16 18:00:00 12.3 9 Sudeste 25 Sudeste 0 -- -- 67
2020-01-16 17:00:00 13.7 11 Sudeste 27 Sudeste 0 -- -- 61
2020-01-16 16:00:00 15.1 8 Sur 24 Sudeste 0 -- -- 62
2020-01-16 15:00:00 15.4 10 Sudeste 23 Sur 0 -- -- 61
2020-01-16 14:00:00 15.2 8 Sur 17 Sudeste 0 -- -- 59
2020-01-16 13:00:00 13.3 6 Sudeste 15 Sudeste 0 -- -- 66
2020-01-16 12:00:00 10.7 4 Sur 8 Sudoeste 0 -- -- 67
2020-01-16 11:00:00 6.4 0 Calma 4 Nordeste 0 -- -- 84
2020-01-16 10:00:00 4.4 0 Calma 4 Sudeste 0 -- -- 91
2020-01-16 09:00:00 2.9 0 Calma 6 Nordeste 0 -- -- 96
2020-01-16 08:00:00 2.5 0 Calma 3 Noroeste 0 -- -- 99
2020-01-16 07:00:00 2.3 0 Calma 6 Este 0 -- -- 100
2020-01-16 06:00:00 -- 0 Calma 5 Noroeste 0 -- -- --
2020-01-16 05:00:00 2.3 0 Calma 4 Oeste 0 -- -- 100
2020-01-16 04:00:00 2.5 0 Calma 3 Este 0 -- -- 100
2020-01-16 03:00:00 2.7 0 Calma 3 Norte 0 -- -- 98
2020-01-16 02:00:00 3.1 0 Calma 3 Noroeste 0 -- -- 97
2020-01-16 01:00:00 3.5 0 Calma 5 Oeste 0 -- -- 95
2020-01-16 00:00:00 4.2 0 Calma 4 Sudoeste 0 -- -- 92
2020-01-15 23:00:00 4.8 0 Calma 2 Noroeste 0 -- -- 92
2020-01-15 22:00:00 5.7 0 Calma 4 Noroeste 0 -- -- 89
2020-01-15 21:00:00 6.6 0 Calma 4 Sudoeste 0 -- -- 84
2020-01-15 20:00:00 8.1 0 Calma 5 Oeste 0 -- -- 80
2020-01-15 19:00:00 9.7 0 Calma 8 Sur 0 -- -- 73
2020-01-15 18:00:00 11.5 2 Este 18 Sudeste 0 -- -- 68
2020-01-15 17:00:00 13.8 6 Sudeste 18 Sudeste 0 -- -- 54
2020-01-15 16:00:00 15.3 8 Sudeste 20 Sudeste 0 -- -- 46
2020-01-15 15:00:00 15.3 9 Sur 22 Sur 0 -- -- 46
2020-01-15 14:00:00 14.6 9 Sur 27 Sur 0 -- -- 48
2020-01-15 13:00:00 14.8 9 Sur 28 Sur 0 -- -- 51
2020-01-15 12:00:00 13.9 8 Sur 21 Sur 0 -- -- 61
2020-01-15 11:00:00 11 4 Sudeste 12 Sur 0 -- -- 75
2020-01-15 10:00:00 8.5 6 Sudeste 14 Sudeste 0 -- -- 84
2020-01-15 09:00:00 7.2 6 Sudeste 15 Sur 0 -- -- 92
2020-01-15 08:00:00 6.1 4 Sur 11 Sudeste 0 -- -- 95
2020-01-15 07:00:00 6.8 2 Sur 15 Sudeste 0 -- -- 87
2020-01-15 06:00:00 8.1 6 Sudeste 15 Sudeste 0 -- -- 86
2020-01-15 05:00:00 7.7 4 Sudeste 17 Sudeste 0 -- -- 85
2020-01-15 04:00:00 8.3 6 Sudeste 14 Sur 0 -- -- 84
2020-01-15 03:00:00 8.3 6 Sudeste 15 Sudeste 0 -- -- 85
2020-01-15 02:00:00 8.5 6 Sudeste 19 Sudeste 0 -- -- 84
2020-01-15 01:00:00 9.3 9 Sudeste 21 Sudeste 0 -- -- 80
2020-01-15 00:00:00 9.2 11 Sudeste 23 Sudeste 0 -- -- 79
2020-01-14 23:00:00 9.3 10 Sudeste 33 Sur 0 -- -- 78
2020-01-14 22:00:00 10.3 18 Sur 36 Sur 0 -- -- 74
2020-01-14 21:00:00 9.5 8 Sudeste 18 Sudeste 0 -- -- 75
2020-01-14 20:00:00 9.9 5 Sudeste 24 Sudeste 0 -- -- 65
2020-01-14 19:00:00 10.3 12 Sur 27 Sudeste 0 -- -- 64
2020-01-14 18:00:00 11.2 6 Sudeste 18 Sudeste 0 -- -- 63
2020-01-14 17:00:00 13.7 8 Sur 20 Sudeste 0 -- -- 52
2020-01-14 16:00:00 15.4 9 Sur 23 Sudeste 0 -- -- 44
2020-01-14 15:00:00 16 9 Sudeste 20 Sudeste 0 -- -- 41
2020-01-14 14:00:00 14.6 5 Sudeste 11 Sur 0 -- -- 48
2020-01-14 13:00:00 12.1 4 Sur 8 Sur 0 -- -- 54
2020-01-14 12:00:00 8.7 0 Calma 6 Sur 0 -- -- 70
2020-01-14 11:00:00 4.3 0 Calma 5 Sudoeste 0 -- -- 92
2020-01-14 10:00:00 1.2 2 Sudeste 4 Sudeste 0 -- -- 100
2020-01-14 09:00:00 0.1 0 Calma 4 Sudoeste 0 -- -- 100
2020-01-14 08:00:00 -0.1 0 Calma 4 Sudeste 0 -- -- 100
2020-01-14 07:00:00 -0.1 0 Calma 4 Nordeste 0 -- -- 100
2020-01-14 06:00:00 0.1 0 Calma 4 Este 0 -- -- 100
2020-01-14 05:00:00 0.3 0 Calma 4 Nordeste 0 -- -- 100
2020-01-14 04:00:00 0.2 0 Calma 4 Oeste 0 -- -- 100
2020-01-14 03:00:00 0.5 0 Calma 3 Sur 0 -- -- 100
2020-01-14 02:00:00 0.9 0 Calma 4 Sudoeste 0 -- -- 100
2020-01-14 01:00:00 1.3 0 Calma 4 Noroeste 0 -- -- 100
2020-01-14 00:00:00 2.1 0 Calma 4 Noroeste 0 -- -- 98
2020-01-13 23:00:00 2.9 0 Calma 5 Sudeste 0 -- -- 95
2020-01-13 22:00:00 3.9 2 Nordeste 4 Este 0 -- -- 96
2020-01-13 21:00:00 4.8 0 Calma 4 Este 0 -- -- 93
2020-01-13 20:00:00 6.3 0 Calma 5 Sudeste 0 -- -- 88
2020-01-13 19:00:00 7.6 0 Calma 6 Noroeste 0 -- -- 83
2020-01-13 18:00:00 9.5 0 Calma 6 Sudeste 0 -- -- 74
2020-01-13 17:00:00 11.3 3 Sur 12 Sudeste 0 -- -- 67
2020-01-13 16:00:00 12.6 5 Sudeste 11 Sudeste 0 -- -- 57
2020-01-13 15:00:00 13.4 5 Sur 10 Sudeste 0 -- -- 55
2020-01-13 14:00:00 12.4 2 Sudoeste 8 Sur 0 -- -- 61
2020-01-13 13:00:00 10.6 0 Calma 3 Sudoeste 0 -- -- 57
2020-01-13 12:00:00 8.2 0 Calma 4 Sudoeste 0 -- -- 61
2020-01-13 11:00:00 4.6 0 Calma 4 Este 0 -- -- 71
2020-01-13 10:00:00 1.3 0 Calma 3 Nordeste 0 -- -- 90
2020-01-13 09:00:00 -0.7 0 Calma 3 Este 0 -- -- 99
2020-01-13 08:00:00 -0.9 0 Calma 4 Oeste 0 -- -- 100
2020-01-13 07:00:00 -0.8 0 Calma 4 Este 0 -- -- 100
2020-01-13 06:00:00 -0.9 0 Calma 4 Noroeste 0 -- -- 100
2020-01-13 05:00:00 -0.9 0 Calma 4 Oeste 0 -- -- 100
2020-01-13 04:00:00 -0.5 0 Calma 3 Sudoeste 0 -- -- 100
2020-01-13 03:00:00 0.2 0 Calma 6 Nordeste 0 -- -- 99
2020-01-13 02:00:00 0.6 0 Calma 4 Este 0 -- -- 96
2020-01-13 01:00:00 1.6 0 Calma 6 Este 0 -- -- 93
2020-01-13 00:00:00 2.6 2 Este 8 Este 0 -- -- 93
2020-01-12 23:00:00 3.1 0 Calma 5 Este 0 -- -- 94
2020-01-12 22:00:00 3.6 2 Nordeste 6 Este 0 -- -- 93
2020-01-12 21:00:00 4.5 0 Calma 5 Este 0 -- -- 86
2020-01-12 20:00:00 5.7 0 Calma 3 Sudeste 0 -- -- 81
2020-01-12 19:00:00 7.7 0 Calma 5 Nordeste 0 -- -- 71
2020-01-12 18:00:00 10.1 0 Calma 5 Sudeste 0 -- -- 55
2020-01-12 17:00:00 14.8 2 Sudeste 6 Sudeste 0 -- -- 41
2020-01-12 16:00:00 16 4 Sur 6 Sur 0 -- -- 33
2020-01-12 15:00:00 15.3 3 Sudoeste 6 Sudoeste 0 -- -- 38
2020-01-12 14:00:00 13.8 2 Sur 6 Sudoeste 0 -- -- 43
2020-01-12 13:00:00 11.4 2 Sur 5 Sur 0 -- -- 53
2020-01-12 12:00:00 7.9 3 Sudoeste 5 Oeste 0 -- -- 66
2020-01-12 11:00:00 3.8 0 Calma 4 Oeste 0 -- -- 94
2020-01-12 10:00:00 0.3 0 Calma 3 Nordeste 0 -- -- 100
2020-01-12 09:00:00 -1.2 0 Calma 3 Norte 0 -- -- 100
2020-01-12 08:00:00 -1.2 0 Calma 4 Este 0 -- -- 100
2020-01-12 07:00:00 -1.1 0 Calma 4 Este 0 -- -- 100
2020-01-12 06:00:00 -0.7 0 Calma 2 Este 0 -- -- 100
2020-01-12 05:00:00 -0.4 0 Calma 4 Nordeste 0 -- -- 100
2020-01-12 04:00:00 0 0 Calma 3 Este 0 -- -- 100
2020-01-12 03:00:00 0.6 0 Calma 4 Este 0 -- -- 99
2020-01-12 02:00:00 1.1 0 Calma 4 Este 0 -- -- 96
2020-01-12 01:00:00 2 0 Calma 5 Nordeste 0 -- -- 94
2020-01-12 00:00:00 2.7 0 Calma 5 Este 0 -- -- 93
2020-01-11 23:00:00 3.4 2 Este 4 Nordeste 0 -- -- 93
2020-01-11 22:00:00 4 0 Calma 4 Nordeste 0 -- -- 92
2020-01-11 21:00:00 4.8 0 Calma 5 Noroeste 0 -- -- 87
2020-01-11 20:00:00 6 3 Noroeste 9 Oeste 0 -- -- 83
2020-01-11 19:00:00 7.3 3 Noroeste 7 Oeste 0 -- -- 75
2020-01-11 18:00:00 9.4 0 Calma 8 Oeste 0 -- -- 65
2020-01-11 17:00:00 12.2 2 Noroeste 12 Noroeste 0 -- -- 50
2020-01-11 16:00:00 13.2 4 Norte 15 Noroeste 0 -- -- 45
2020-01-11 15:00:00 12.7 8 Norte 21 Nordeste 0 -- -- 44
2020-01-11 14:00:00 12.5 7 Nordeste 15 Norte 0 -- -- 48
2020-01-11 13:00:00 11.6 4 Noroeste 14 Norte 0 -- -- 58
2020-01-11 12:00:00 9.6 7 Norte 13 Norte 0 -- -- 63
2020-01-11 11:00:00 5.4 2 Oeste 8 Noroeste 0 -- -- 100
2020-01-11 10:00:00 2.9 2 Oeste 5 Nordeste 0 -- -- 100
2020-01-11 09:00:00 1.4 2 Este 5 Nordeste 0 -- -- 100
2020-01-11 08:00:00 1.1 0 Calma 5 Sudoeste 0 -- -- 100
2020-01-11 07:00:00 1.3 0 Calma 4 Sudoeste 0 -- -- 100
2020-01-11 06:00:00 2 2 Oeste 6 Sudoeste 0 -- -- 100
2020-01-11 05:00:00 2.6 0 Calma 5 Este 0 -- -- 100
2020-01-11 04:00:00 2.3 2 Oeste 9 Sudoeste 0 -- -- 100
2020-01-11 03:00:00 2.7 2 Noroeste 7 Noroeste 0 -- -- 100
2020-01-11 02:00:00 3.2 0 Calma 6 Norte 0 -- -- 100
2020-01-11 01:00:00 3.7 0 Calma 5 Oeste 0 -- -- 100
2020-01-11 00:00:00 4.2 0 Calma 4 Noroeste 0 -- -- 100
2020-01-10 23:00:00 4.9 0 Calma 4 Norte 0 -- -- 100
2020-01-10 22:00:00 5.8 2 Oeste 5 Oeste 0 -- -- 97
2020-01-10 21:00:00 6.9 0 Calma 4 Oeste 0 -- -- 92
2020-01-10 20:00:00 8.9 2 Noroeste 10 Noroeste 0 -- -- 75
2020-01-10 19:00:00 9.3 2 Este 7 Nordeste 0 -- -- 78
2020-01-10 18:00:00 11 0 Calma 6 Oeste 0 -- -- 72
2020-01-10 17:00:00 13.2 3 Oeste 7 Oeste 0 -- -- 64
2020-01-10 16:00:00 15.1 5 Sudoeste 10 Sudoeste 0 -- -- 61
2020-01-10 15:00:00 13.7 5 Sudoeste 9 Sudoeste 0 -- -- 68
2020-01-10 14:00:00 11.8 0 Calma 6 Sudoeste 0 -- -- 78
2020-01-10 13:00:00 11.3 2 Oeste 4 Oeste 0 -- -- 87
2020-01-10 12:00:00 10.6 0 Calma 3 Noroeste 0 -- -- 94
2020-01-10 11:00:00 9.4 0 Calma 5 Norte 0 -- -- 100
2020-01-10 10:00:00 8.5 0 Calma 6 Oeste 0 -- -- 100
2020-01-10 09:00:00 8.4 3 Sudoeste 7 Sudoeste 1.8 -- -- 100
2020-01-10 08:00:00 8.4 0 Calma 7 Norte 3 -- -- 100
2020-01-10 07:00:00 8.6 4 Noroeste 12 Noroeste 3 -- -- 100
2020-01-10 06:00:00 9 6 Norte 15 Norte 0.6 -- -- 94
2020-01-10 05:00:00 9.5 6 Norte 16 Norte 0.2 -- -- 89
2020-01-10 04:00:00 9 3 Noroeste 8 Noroeste 0 -- -- 95
2020-01-10 03:00:00 9.5 0 Calma 3 Sur 0 -- -- 89
2020-01-10 02:00:00 9.9 0 Calma 7 Sudeste 0 -- -- 84
2020-01-10 01:00:00 10.4 3 Norte 17 Sudeste 0 -- -- 80
2020-01-10 00:00:00 10.6 5 Sudeste 21 Sur 0 -- -- 79
2020-01-09 23:00:00 10.6 10 Sur 24 Sur 0 -- -- 81
2020-01-09 22:00:00 10.4 9 Sur 30 Sudeste 0 -- -- 82
2020-01-09 21:00:00 10.5 12 Sur 28 Sudeste 0 -- -- 84
2020-01-09 20:00:00 10.7 10 Sur 29 Sudeste 0 -- -- 86
2020-01-09 19:00:00 11.1 14 Sudeste 30 Sudeste 0 -- -- 86
2020-01-09 18:00:00 11.6 13 Sudeste 28 Sudeste 0 -- -- 82
2020-01-09 17:00:00 13.3 14 Sudeste 30 Sur 0 -- -- 72
2020-01-09 16:00:00 15.3 12 Sur 31 Sur 0 -- -- 64
2020-01-09 15:00:00 15.9 10 Sur 27 Sudeste 0 -- -- 61
2020-01-09 14:00:00 15.6 12 Sudeste 28 Sudeste 0 -- -- 62
2020-01-09 13:00:00 14.2 9 Sur 22 Sur 0 -- -- 68
2020-01-09 12:00:00 10.5 4 Sur 8 Sudoeste 0 -- -- 78
2020-01-09 11:00:00 6.1 3 Sudoeste 5 Sudoeste 0 -- -- 96
2020-01-09 10:00:00 2.2 2 Este 5 Este 0 -- -- 100
2020-01-09 09:00:00 1.4 0 Calma 4 Este 0 -- -- 98
2020-01-09 08:00:00 1.1 3 Este 5 Este 0 -- -- 99
2020-01-09 07:00:00 0.8 2 Este 5 Este 0 -- -- 98
2020-01-09 06:00:00 1.2 0 Calma 6 Sudeste 0 -- -- 99
2020-01-09 05:00:00 1.2 0 Calma 3 Sudeste 0 -- -- 98
2020-01-09 04:00:00 1.9 0 Calma 5 Este 0 -- -- 97
2020-01-09 03:00:00 2.3 0 Calma 4 Nordeste 0 -- -- 98
2020-01-09 02:00:00 2.8 0 Calma 4 Nordeste 0 -- -- 96
2020-01-09 01:00:00 3.5 0 Calma 5 Sudeste 0 -- -- 95
2020-01-09 00:00:00 4.2 0 Calma 3 Nordeste 0 -- -- 93
2020-01-08 23:00:00 5.2 0 Calma 6 Este 0 -- -- 90
2020-01-08 22:00:00 6 0 Calma 3 Nordeste 0 -- -- 89
2020-01-08 21:00:00 7.4 0 Calma 5 Este 0 -- -- 87
2020-01-08 20:00:00 8.6 2 Norte 5 Noroeste 0 -- -- 81
2020-01-08 19:00:00 10.1 0 Calma 7 Sudeste 0 -- -- 74
2020-01-08 18:00:00 12.6 2 Sudeste 9 Este 0 -- -- 65
2020-01-08 17:00:00 14.8 4 Nordeste 10 Norte 0 -- -- 52
2020-01-08 16:00:00 15.7 6 Norte 12 Norte 0 -- -- 47
2020-01-08 15:00:00 16.3 4 Este 14 Norte 0 -- -- 49
2020-01-08 14:00:00 15.6 8 Norte 19 Norte 0 -- -- 54
2020-01-08 13:00:00 15.2 10 Norte 23 Norte 0 -- -- 59
2020-01-08 12:00:00 14.1 8 Norte 18 Norte 0 -- -- 64
2020-01-08 11:00:00 8.6 0 Calma 5 Oeste 0 -- -- 79
2020-01-08 10:00:00 4.8 2 Oeste 6 Noroeste 0 -- -- 93
2020-01-08 09:00:00 2.8 0 Calma 5 Sudoeste 0 -- -- 98
2020-01-08 08:00:00 2.8 2 Oeste 6 Sudoeste 0 -- -- 97
2020-01-08 07:00:00 2.8 0 Calma 5 Nordeste 0 -- -- 95
2020-01-08 06:00:00 3.3 2 Norte 5 Nordeste 0 -- -- 93
2020-01-08 05:00:00 3.5 0 Calma 4 Nordeste 0 -- -- 94
2020-01-08 04:00:00 3.5 0 Calma 6 Este 0 -- -- 95
2020-01-08 03:00:00 3.4 3 Sur 10 Nordeste 0 -- -- 96
2020-01-08 02:00:00 3.8 0 Calma 5 Sudeste 0 -- -- 95
2020-01-08 01:00:00 4.4 0 Calma 6 Norte 0 -- -- 94
2020-01-08 00:00:00 5 2 Este 4 Nordeste 0 -- -- 94
2020-01-07 23:00:00 5.8 0 Calma 7 Norte 0 -- -- 89
2020-01-07 22:00:00 6.8 0 Calma 4 Nordeste 0 -- -- 86
2020-01-07 21:00:00 8 3 Nordeste 5 Nordeste 0 -- -- 84
2020-01-07 20:00:00 9 0 Calma 4 Nordeste 0 -- -- 78
2020-01-07 19:00:00 10.4 2 Oeste 4 Sudoeste 0 -- -- 73
2020-01-07 18:00:00 12.4 0 Calma 4 Norte 0 -- -- 67
2020-01-07 17:00:00 14.9 0 Calma 4 Sudoeste 0 -- -- 56
2020-01-07 16:00:00 16 2 Oeste 6 Oeste 0 -- -- 51
2020-01-07 15:00:00 15.9 2 Sudoeste 5 Sudoeste 0 -- -- 50
2020-01-07 14:00:00 15 3 Noroeste 6 Norte 0 -- -- 54
2020-01-07 13:00:00 13.2 3 Este 7 Este 0 -- -- 60
2020-01-07 12:00:00 9.8 2 Sudoeste 7 Sudeste 0 -- -- 76
2020-01-07 11:00:00 5.7 4 Sudeste 7 Este 0 -- -- 100
2020-01-07 10:00:00 2.6 0 Calma 5 Sudoeste 0 -- -- 100
2020-01-07 09:00:00 1.2 0 Calma 4 Sudeste 0 -- -- 100
2020-01-07 08:00:00 1 2 Oeste 5 Sudoeste 0 -- -- 100
2020-01-07 07:00:00 1.2 0 Calma 6 Este 0 -- -- 100
2020-01-07 06:00:00 1.7 2 Este 5 Nordeste 0 -- -- 100
2020-01-07 05:00:00 1.9 2 Nordeste 5 Sur 0 -- -- 100
2020-01-07 04:00:00 2.5 0 Calma 6 Nordeste 0 -- -- 100
2020-01-07 03:00:00 2.8 0 Calma 7 Este 0 -- -- 100
2020-01-07 02:00:00 3.3 0 Calma 4 Este 0 -- -- 100
2020-01-07 01:00:00 4.4 2 Nordeste 6 Este 0 -- -- 100
2020-01-07 00:00:00 4.6 2 Oeste 5 Noroeste 0 -- -- 100
2020-01-06 23:00:00 4.7 0 Calma 4 Noroeste 0 -- -- 100
2020-01-06 22:00:00 5.5 0 Calma 4 Noroeste 0 -- -- 98
2020-01-06 21:00:00 6.4 0 Calma 5 Noroeste 0 -- -- 95
2020-01-06 20:00:00 7.4 0 Calma 3 Sudoeste 0 -- -- 91
2020-01-06 19:00:00 9.2 0 Calma 5 Sudeste 0 -- -- 84
2020-01-06 18:00:00 11.4 0 Calma 8 Norte 0 -- -- 75
2020-01-06 17:00:00 14.1 4 Norte 8 Nordeste 0 -- -- 64
2020-01-06 16:00:00 16.2 2 Sudeste 9 Sudoeste 0 -- -- 55
2020-01-06 15:00:00 16.1 5 Sudoeste 10 Sur 0 -- -- 55
2020-01-06 14:00:00 15.6 5 Sur 12 Sudeste 0 -- -- 56
2020-01-06 13:00:00 13.6 2 Sur 5 Sudoeste 0 -- -- 57
2020-01-06 12:00:00 10 0 Calma 4 Noroeste 0 -- -- 62
2020-01-06 11:00:00 6.3 0 Calma 4 Sudoeste 0 -- -- 75
2020-01-06 10:00:00 2.7 0 Calma 4 Noroeste 0 -- -- 90